Tracking 35055 objects as of 18-Aug-2026
HD Live streaming from Space Station
objects crossing your sky now

SALYUT 7 DEB


SALYUT 7 DEB is no longer on orbit


NORAD ID: 13523
Int'l Code: 1982-033Z
Launch date: April 19, 1982
Source: Commonwealth of Independent States (former USSR) (CIS)
Launch site: TYURATAM MISSILE AND SPACE COMPLEX (TTMTR)
Decay date: 1982-10-02

Note: This is SATELLITE DEBRIS
Your satellite tracking list
Your tracking list is empty




NASA's NSSDC Master Catalog

Two Line Element Set (TLE):
1 13523U 82033  Z 82275.75323378  .15180352 +06430-5 +01397-3 0  9998
2 13523 051.6003 002.9947 0005368 317.8348 045.0716 16.39685822026380
Source of the keplerian elements: AFSPC